Regional Weather Roundup
Issued by NWS

Home | Current Version | Previous Version | Text Only | Print | Product List | Glossary On
Versions: 1 2 3 4 5 6 7 8 9 10 11 12 13 14 15 16 17 18 19 20 21 22 23 24 25 26 27 28 29 30 31 32 33 34 35 36 37 38 39 40 41 42 43 44 45 46 47 48 49 50
000
ASUS43 KBIS 152310
RWRND

NORTH DAKOTA REGIONAL WEATHER ROUNDUP
NATIONAL WEATHER SERVICE BISMARCK ND
600 PM CDT MON SEP 15 2014

NOTE: "FAIR" INDICATES FEW OR NO CLOUDS BELOW 12,000 FEET WITH NO
SIGNIFICANT WEATHER AND/OR OBSTRUCTIONS TO VISIBILITY.


NDZ001>003-009>011-017-160000-
NORTHWEST NORTH DAKOTA

CITY           SKY/WX    TMP DP  RH WIND       PRES   REMARKS
WILLISTON      SUNNY     68  32  26 S9        30.08F
MINOT          SUNNY     67  34  29 SW9       30.09F
MINOT AFB      SUNNY     67  34  29 W7        30.08F
$$

NDZ018>021-031>035-040>046-160000-
SOUTHWEST NORTH DAKOTA

CITY           SKY/WX    TMP DP  RH WIND       PRES   REMARKS
BISMARCK       SUNNY     68  35  29 SW10      30.15F
DICKINSON      SUNNY     65  37  35 S9        30.11S
GARRISON         N/A     67  37  33 W8        30.11F
HETTINGER ARPT SUNNY     65  36  34 SW8       30.15F
$$

NDZ004>008-012>016-024-026-027-054-160000-
NORTHEAST NORTH DAKOTA

CITY           SKY/WX    TMP DP  RH WIND       PRES   REMARKS
GRAND FORKS    MOSUNNY   67  38  34 W10       30.10F
GRND FRKS AFB  SUNNY     66  39  37 W9        30.10F
DEVILS LAKE    SUNNY     66  37  34 W15       30.09S
$$

NDZ022-023-025-028>030-036>039-047>053-160000-
SOUTHEAST NORTH DAKOTA

CITY           SKY/WX    TMP DP  RH WIND       PRES   REMARKS
FARGO          SUNNY     64  36  35 SW9       30.16F
JAMESTOWN      SUNNY     63  37  38 W12       30.15F
$$



USA.gov is the U.S. government's official web portal to all federal, state and local government web resources and services.